SCP
0 0 0 0 0 0 0 0 0 0 0 0 0 0 0 0 0 0 0 0 0 0 0 0 0 0 0 0 0 0 0 0 0 0 0 0 0 0 0 0 0 0 0
0 0 0 0 0 0 0 0 0 -0 -0 0 0 0 0 0 0 0 0 0 0 0 0 0 0 0 0 0 0 0 0 0 0 0 0 0 0 0 0 0 0 0 0
0 0 0 0 0 0 0 0 0 0 0 0 0 0 0 0 0 0 0 0 0 0 0 0 0 0 0 0 0 0 0 0 0 0 0 0 0 0 0 0 0 0 0
0 0 0 0 0 0 0 0 0 0 0 0 0 0 0 0 0 0 0 0 0 0 0 0 0 0 0 0 0 0 0 0 0 0 0 0 0 0 0 0 0 0 0
0 0 0 0 0 0 0 0 0 0 -0 -0 0 0 0 0 0 0 0 0 0 0 0 0 0 0 0 0 0 0 0 0 0 0 0 0 0 0 0 0 0 0 0
0 0 0 0 0 0 0 0 0 -0 -0 -0 0 0 0 0 -0 0 0 0 0 -0 0 0 0 0 0 0 0 0 0 0 0 0 0 0 0 0 0 0 0 0 0
0 0 0 0 0 0 0 0 -0 0 0 -0 -0 0 0 0 -0 0 0 0 0 0 0 0 0 0 0 0 0 0 0 0 0 0 0 0 0 0 0 0 0 0 0
0 0 0 0 0 0 0 0 -0 -0 0 0 -0 -0 0 0 0 0 0 0 0 0 0 0 0 0 0 0 0 0 0 0 0 0 0 0 0 0 0 0 0 0 0
0 0 0 0 0 0 0 0 -0 -0 0 0 0 0 0 0 0 0 0 -0 0 0 0 0 0 0 0 0 0 0 0 0 0 0 0 0 0 0 0 0 0 0 0
0 0 0 0 0 0 0 0 -0 0 0 0 0 0 0 0 0 0 0 -0 0 0 0 0 0 0 0 0 0 0 0 0 0 0 0 0 0 0 0 0 0 0 0
0 0 0 0 0 0 0 0 0 0 0 0 0 0 0 0 0 0 0 0 0 0 0 0 0 0 0 0 0 0 0 0 0 0 0 0 0 0 0 0 0 0 0
0 0 0 0 0 0 0 0 0 0 0 0 0 0 0 0 0 0 0 0 0 0 0 0 0 0 0 0 0 0 0 0 0 0 0 0 0 0 0 0 1 0 0
0 0 0 0 0 0 0 0 0 0 0 0 0 0 0 0 0 0 0 0 0 0 0 0 0 0 0 0 0 0 0 0 0 0 0 0 0 0 0 0 0 1 0
0 0 0 0 0 0 0 0 0 0 0 0 0 0 0 0 0 0 0 0 0 0 0 0 0 0 0 0 0 0 0 0 0 0 0 0 0 0 0 0 0 0 0
0 0 0 0 0 0 0 0 0 0 0 0 0 0 -0 0 0 0 0 0 0 0 0 0 0 0 0 0 0 0 0 0 0 0 0 0 0 0 0 0 0 0 0
0 0 0 0 0 0 0 0 0 0 0 0 0 0 0 0 -0 0 0 0 0 0 0 0 0 0 0 0 0 0 0 0 0 0 0 0 0 0 0 0 0 0 0
0 0 0 0 0 0 0 0 0 0 0 0 0 0 0 0 -0 0 0 0 0 0 0 0 0 0 0 0 0 0 0 0 0 0 0 0 0 0 0 0 0 0 0
0 0 0 0 0 0 0 0 0 0 0 0 0 0 0 0 0 -0 0 0 0 0 0 0 0 0 0 0 0 0 0 0 0 0 0 0 0 0 0 0 0 0 0
0 0 0 0 0 0 0 0 0 0 0 0 0 0 0 0 0 0 0 0 0 0 0 0 0 0 0 0 0 0 0 0 0 0 0 0 0 0 0 0 0 0 0
0 0 0 0 0 0 0 0 0 0 0 0 0 0 0 0 0 0 0 0 0 0 0 0 0 0 0 0 0 0 0 0 0 0 0 0 0 0 0 0 0 0 0
0 0 0 0 0 0 0 0 0 0 0 0 0 0 0 0 0 0 0 0 0 0 0 0 0 0 0 0 0 0 0 0 0 0 0 0 0 0 0 0 0 -0 -0
0 0 0 0 0 0 0 0 0 0 0 0 0 0 0 0 0 0 0 0 0 0 0 0 0 0 0 0 0 0 0 0 0 0 0 0 0 0 0 0 0 0 -0
0 0 0 0 0 0 0 0 0 0 0 0 0 0 0 0 0 0 0 0 0 0 0 0 0 0 0 0 0 0 0 0 0 0 0 0 0 0 -0 0 0 0 -0
0 0 0 0 -0 0 0 0 0 0 0 0 0 0 0 0 0 0 0 0 0 0 0 0 0 0 0 0 0 0 0 0 0 0 0 0 0 0 0 0 0 0 0
0 1 0 0 -0 0 0 0 0 0 0 0 0 0 0 0 0 0 0 0 0 0 0 0 0 0 0 0 0 0 0 0 0 0 0 0 0 0 0 0 0 0 0
1 0 1 0 0 0 0 0 0 0 0 0 0 0 0 0 0 0 0 0 0 0 0 0 0 0 0 0 0 0 0 0 0 0 0 0 0 0 0 0 0 0 0
Wind_Speed_500mb
22 25 22 16 15 1 8 5 18 13 11 5 11 7 4 7 6 7 19 23 30 19 14 14 16 18 18 17 21 21 24 23 22 18 20 21 23 19 18 18 17 16 15
25 24 22 11 12 7 5 2 13 22 17 9 11 17 11 8 3 14 18 21 24 28 23 15 18 20 21 22 22 23 22 22 23 21 22 22 24 23 21 20 19 19 18
27 20 18 13 7 2 5 7 8 7 7 8 6 13 10 3 6 13 7 20 17 24 27 24 17 15 18 22 23 23 25 23 25 25 25 24 25 26 25 22 22 21 20
30 29 19 15 6 4 5 11 11 9 12 4 6 11 10 7 16 7 7 2 3 10 21 25 15 20 21 23 20 22 27 27 26 26 25 25 25 27 27 26 26 25 23
32 27 22 14 9 5 3 7 5 5 4 9 9 6 9 6 7 11 17 14 19 13 9 19 13 18 25 29 26 23 22 24 26 29 29 27 26 28 29 29 28 28 29
33 29 23 17 11 4 3 7 9 13 7 13 10 2 6 7 10 15 13 10 18 19 25 20 11 14 19 27 31 28 21 23 26 27 27 28 29 24 25 27 29 31 31
38 34 23 20 16 9 4 4 12 13 10 12 10 7 7 7 11 6 6 17 17 15 16 23 18 4 8 17 34 28 20 22 24 23 25 25 28 28 26 29 29 29 31
39 34 25 22 17 13 8 8 12 6 14 2 7 14 14 6 9 7 16 21 26 8 12 17 24 15 6 7 31 27 25 24 23 24 25 31 31 33 30 29 30 30 32
41 37 27 25 18 14 11 11 14 11 4 15 10 4 5 5 1 7 15 24 30 28 32 12 24 22 24 8 21 28 26 25 25 24 24 28 38 40 38 33 33 34 31
42 39 32 24 20 15 8 10 11 16 10 8 16 16 14 13 8 4 6 23 22 25 27 29 22 13 30 24 26 36 36 35 31 30 30 32 34 38 41 41 39 38 35
51 46 39 31 30 19 18 10 13 14 14 7 6 5 14 12 15 7 12 17 20 14 31 38 26 18 30 31 37 33 42 42 36 35 36 36 36 37 39 43 38 43 37
55 51 45 38 32 27 18 13 11 9 9 7 10 5 6 1 2 5 9 16 22 14 24 19 16 22 35 35 41 46 53 53 44 35 36 39 37 37 38 38 56 39 37
59 57 52 44 37 29 22 17 12 12 12 11 7 5 3 3 3 5 7 16 20 17 16 10 25 30 33 24 35 53 57 49 52 44 39 37 38 38 39 36 39 48 42
57 58 57 48 42 36 28 22 17 15 10 9 7 6 9 8 6 10 10 14 23 17 11 11 16 28 23 37 50 61 61 58 47 44 42 39 38 37 38 36 31 34 38
61 61 63 54 47 40 32 25 22 18 14 9 4 8 8 5 14 12 14 12 18 24 32 16 31 31 40 51 53 52 54 59 57 41 43 44 45 41 38 36 31 34 37
64 63 59 59 49 43 35 28 26 22 17 10 5 3 6 10 16 13 20 17 17 21 28 37 41 45 44 51 50 55 59 62 57 41 45 51 57 51 41 36 29 29 46
65 58 49 52 51 46 41 35 33 26 25 19 17 13 9 14 21 25 21 16 19 25 34 41 42 43 49 44 44 51 53 61 59 46 49 53 54 53 50 37 29 26 43
75 67 52 36 49 48 47 40 39 32 30 26 20 13 11 12 19 26 27 30 31 26 30 42 47 47 39 41 47 41 49 40 52 45 40 48 48 48 48 33 26 19 42
87 79 59 59 35 41 51 49 44 42 35 31 22 21 24 21 21 25 35 35 32 34 34 38 47 42 39 40 38 27 31 44 57 48 43 42 43 46 42 31 19 22 44
95 92 79 70 69 65 67 60 54 49 46 38 35 38 30 25 26 31 34 37 36 38 40 40 43 42 38 31 39 48 51 48 49 39 36 41 44 42 40 28 22 19 39
97 96 89 95 69 84 73 74 62 55 54 49 44 41 33 27 33 38 42 42 40 40 43 43 42 42 39 44 42 48 47 46 42 35 40 44 46 42 37 26 13 13 36
100 98 101 89 96 85 85 81 74 64 59 55 50 45 32 33 34 43 48 51 45 45 46 45 50 47 48 42 41 46 50 50 47 36 36 47 44 39 38 26 13 24 34
93 104 107 93 92 94 89 84 75 66 62 58 54 46 34 29 36 42 48 50 45 45 47 49 51 50 46 43 48 48 50 49 51 49 27 39 36 37 32 25 14 24 27
98 117 88 97 93 91 91 85 73 69 64 57 55 44 39 38 42 42 47 47 47 46 46 47 53 55 51 48 50 50 52 52 48 32 25 38 30 35 31 29 20 21 26
101 102 88 93 86 90 93 81 74 70 64 59 52 44 43 40 43 45 45 48 51 52 48 44 44 48 49 47 48 54 51 42 40 34 25 36 30 29 30 25 18 16 28
64 94 79 83 86 84 75 80 77 72 68 60 50 43 38 41 45 49 51 53 57 58 52 53 57 58 57 50 46 41 38 39 38 29 11 21 20 28 20 23 15 18 32
Wind_Direction_500mb
190 201 218 204 216 168 277 27 299 334 50 351 311 303 323 6 72 290 319 333 344 355 312 308 304 305 302 299 300 300 299 299 303 301 304 305 301 305 309 316 319 315 311
196 226 221 192 219 202 293 331 348 15 36 42 321 352 49 39 324 125 355 345 2 14 13 317 294 295 298 298 300 299 303 301 293 293 300 301 299 298 297 302 307 308 307
212 199 186 198 211 53 21 352 52 359 337 36 43 21 63 110 32 117 103 13 3 7 5 4 357 342 310 299 300 303 297 295 295 289 287 289 292 293 293 293 296 299 303
203 183 187 194 170 92 5 14 357 98 339 20 60 107 75 44 37 13 343 13 195 5 350 337 354 1 357 346 332 313 304 302 289 290 284 282 290 293 291 290 292 293 296
185 180 190 173 178 138 114 134 348 95 29 134 355 62 107 49 117 337 55 4 343 17 345 320 33 359 346 341 331 321 315 306 304 296 290 283 293 295 294 292 287 289 292
180 167 192 168 153 134 115 85 50 51 45 127 120 250 162 343 110 14 32 328 10 26 343 5 41 348 344 342 341 337 315 307 303 302 289 284 293 304 309 298 292 286 287
187 182 181 171 172 179 106 123 89 31 31 153 165 280 341 8 80 84 319 339 19 53 336 339 350 163 321 344 322 332 327 314 303 314 296 289 283 294 301 309 308 291 287
190 191 183 179 183 160 137 96 118 87 16 99 207 215 226 201 256 347 356 6 14 13 10 336 355 2 16 8 321 350 339 331 317 304 303 289 289 285 286 294 299 299 293
192 191 188 186 188 161 141 120 129 122 2 13 39 241 302 90 313 331 358 15 7 0 352 31 331 1 349 343 309 334 347 332 324 315 293 284 282 282 282 285 286 289 291
197 202 198 200 175 182 194 146 129 135 108 19 350 42 67 52 66 83 330 20 356 338 335 354 324 9 324 342 338 339 340 327 318 308 301 293 286 286 279 279 280 283 283
199 203 203 199 194 201 206 170 152 138 152 168 147 11 23 28 21 27 343 339 320 348 316 328 342 339 326 330 336 347 346 331 321 310 302 297 295 286 281 272 279 276 278
203 206 208 204 198 204 198 198 161 149 143 173 115 118 120 125 321 2 313 323 319 329 307 324 328 310 335 334 331 334 332 328 325 317 305 295 292 290 282 275 269 282 265
205 210 210 207 201 210 206 207 192 166 174 141 144 128 40 303 311 288 296 303 316 333 338 345 344 326 342 334 320 316 320 329 319 323 313 304 296 291 293 293 271 274 264
213 216 217 211 210 212 212 207 200 192 173 152 108 87 131 302 314 283 289 316 323 321 324 335 347 338 324 306 305 316 318 330 330 323 324 320 310 299 289 289 279 269 260
218 216 215 212 213 213 216 212 207 212 194 182 129 61 77 334 315 340 336 318 314 316 324 303 323 304 300 303 318 325 332 331 328 335 335 327 320 314 301 289 286 270 264
208 214 212 211 211 217 219 214 217 223 210 198 194 320 39 19 14 332 302 294 286 300 302 303 301 307 315 322 331 335 331 336 339 330 325 319 318 318 313 296 285 267 256
200 209 207 211 212 219 222 218 219 226 221 208 209 243 314 347 5 356 337 326 294 285 289 307 315 327 325 332 332 325 327 327 336 325 324 319 317 316 313 306 278 271 244
202 205 197 200 216 220 224 224 218 226 229 228 232 243 261 286 318 352 333 311 303 313 309 301 320 324 329 331 323 320 329 321 318 320 313 312 324 309 314 306 278 280 245
207 200 195 213 216 227 233 230 225 223 230 231 240 257 257 276 315 325 337 328 323 314 311 306 311 325 313 321 321 305 293 299 311 323 309 311 311 306 313 303 292 274 233
205 203 201 207 211 219 234 230 226 224 228 229 230 239 251 270 291 316 327 329 317 313 310 309 309 311 316 318 294 296 306 316 325 344 338 316 319 317 315 311 283 264 232
219 211 209 209 214 223 217 222 226 226 225 226 233 245 256 276 293 307 319 330 322 316 314 313 313 316 314 305 309 308 312 317 330 343 322 323 327 324 335 333 318 264 229
216 211 212 208 221 214 218 216 223 222 225 226 231 242 250 271 292 306 316 320 323 318 314 315 316 313 312 305 308 309 315 318 319 329 309 318 329 317 331 332 309 233 230
218 213 215 220 220 221 218 218 220 220 222 226 230 236 250 269 283 295 307 313 310 310 309 309 310 311 305 309 306 308 310 311 303 322 327 327 333 310 320 329 323 220 226
221 217 222 224 226 226 222 218 219 219 221 222 229 236 254 271 282 299 306 303 304 305 306 302 301 301 297 295 300 303 304 305 309 332 325 306 325 304 312 332 332 214 219
219 217 235 224 223 227 224 213 213 218 225 224 231 241 257 272 288 295 298 305 306 309 304 296 292 299 303 300 299 297 300 307 309 308 301 299 314 294 311 313 321 214 214
228 219 225 227 228 222 220 209 214 220 224 225 234 246 260 272 286 299 299 303 304 308 300 294 296 299 297 296 293 291 307 306 314 311 320 299 314 293 300 296 271 250 215
Wind_Speed_850mb
22 25 22 16 15 1 8 5 18 13 11 5 11 7 4 7 6 7 19 23 30 19 14 14 16 18 18 17 21 21 24 23 22 18 20 21 23 19 18 18 17 16 15
25 24 22 11 12 7 5 2 13 22 17 9 11 17 11 8 3 14 18 21 24 28 23 15 18 20 21 22 22 23 22 22 23 21 22 22 24 23 21 20 19 19 18
27 20 18 13 7 2 5 7 8 7 7 8 6 13 10 3 6 13 7 20 17 24 27 24 17 15 18 22 23 23 25 23 25 25 25 24 25 26 25 22 22 21 20
30 29 19 15 6 4 5 11 11 9 12 4 6 11 10 7 16 7 7 2 3 10 21 25 15 20 21 23 20 22 27 27 26 26 25 25 25 27 27 26 26 25 23
32 27 22 14 9 5 3 7 5 5 4 9 9 6 9 6 7 11 17 14 19 13 9 19 13 18 25 29 26 23 22 24 26 29 29 27 26 28 29 29 28 28 29
33 29 23 17 11 4 3 7 9 13 7 13 10 2 6 7 10 15 13 10 18 19 25 20 11 14 19 27 31 28 21 23 26 27 27 28 29 24 25 27 29 31 31
38 34 23 20 16 9 4 4 12 13 10 12 10 7 7 7 11 6 6 17 17 15 16 23 18 4 8 17 34 28 20 22 24 23 25 25 28 28 26 29 29 29 31
39 34 25 22 17 13 8 8 12 6 14 2 7 14 14 6 9 7 16 21 26 8 12 17 24 15 6 7 31 27 25 24 23 24 25 31 31 33 30 29 30 30 32
41 37 27 25 18 14 11 11 14 11 4 15 10 4 5 5 1 7 15 24 30 28 32 12 24 22 24 8 21 28 26 25 25 24 24 28 38 40 38 33 33 34 31
42 39 32 24 20 15 8 10 11 16 10 8 16 16 14 13 8 4 6 23 22 25 27 29 22 13 30 24 26 36 36 35 31 30 30 32 34 38 41 41 39 38 35
51 46 39 31 30 19 18 10 13 14 14 7 6 5 14 12 15 7 12 17 20 14 31 38 26 18 30 31 37 33 42 42 36 35 36 36 36 37 39 43 38 43 37
55 51 45 38 32 27 18 13 11 9 9 7 10 5 6 1 2 5 9 16 22 14 24 19 16 22 35 35 41 46 53 53 44 35 36 39 37 37 38 38 56 39 37
59 57 52 44 37 29 22 17 12 12 12 11 7 5 3 3 3 5 7 16 20 17 16 10 25 30 33 24 35 53 57 49 52 44 39 37 38 38 39 36 39 48 42
57 58 57 48 42 36 28 22 17 15 10 9 7 6 9 8 6 10 10 14 23 17 11 11 16 28 23 37 50 61 61 58 47 44 42 39 38 37 38 36 31 34 38
61 61 63 54 47 40 32 25 22 18 14 9 4 8 8 5 14 12 14 12 18 24 32 16 31 31 40 51 53 52 54 59 57 41 43 44 45 41 38 36 31 34 37
64 63 59 59 49 43 35 28 26 22 17 10 5 3 6 10 16 13 20 17 17 21 28 37 41 45 44 51 50 55 59 62 57 41 45 51 57 51 41 36 29 29 46
65 58 49 52 51 46 41 35 33 26 25 19 17 13 9 14 21 25 21 16 19 25 34 41 42 43 49 44 44 51 53 61 59 46 49 53 54 53 50 37 29 26 43
75 67 52 36 49 48 47 40 39 32 30 26 20 13 11 12 19 26 27 30 31 26 30 42 47 47 39 41 47 41 49 40 52 45 40 48 48 48 48 33 26 19 42
87 79 59 59 35 41 51 49 44 42 35 31 22 21 24 21 21 25 35 35 32 34 34 38 47 42 39 40 38 27 31 44 57 48 43 42 43 46 42 31 19 22 44
95 92 79 70 69 65 67 60 54 49 46 38 35 38 30 25 26 31 34 37 36 38 40 40 43 42 38 31 39 48 51 48 49 39 36 41 44 42 40 28 22 19 39
97 96 89 95 69 84 73 74 62 55 54 49 44 41 33 27 33 38 42 42 40 40 43 43 42 42 39 44 42 48 47 46 42 35 40 44 46 42 37 26 13 13 36
100 98 101 89 96 85 85 81 74 64 59 55 50 45 32 33 34 43 48 51 45 45 46 45 50 47 48 42 41 46 50 50 47 36 36 47 44 39 38 26 13 24 34
93 104 107 93 92 94 89 84 75 66 62 58 54 46 34 29 36 42 48 50 45 45 47 49 51 50 46 43 48 48 50 49 51 49 27 39 36 37 32 25 14 24 27
98 117 88 97 93 91 91 85 73 69 64 57 55 44 39 38 42 42 47 47 47 46 46 47 53 55 51 48 50 50 52 52 48 32 25 38 30 35 31 29 20 21 26
101 102 88 93 86 90 93 81 74 70 64 59 52 44 43 40 43 45 45 48 51 52 48 44 44 48 49 47 48 54 51 42 40 34 25 36 30 29 30 25 18 16 28
64 94 79 83 86 84 75 80 77 72 68 60 50 43 38 41 45 49 51 53 57 58 52 53 57 58 57 50 46 41 38 39 38 29 11 21 20 28 20 23 15 18 32
Wind_Direction_850mb
190 201 218 204 216 168 277 27 299 334 50 351 311 303 323 6 72 290 319 333 344 355 312 308 304 305 302 299 300 300 299 299 303 301 304 305 301 305 309 316 319 315 311
196 226 221 192 219 202 293 331 348 15 36 42 321 352 49 39 324 125 355 345 2 14 13 317 294 295 298 298 300 299 303 301 293 293 300 301 299 298 297 302 307 308 307
212 199 186 198 211 53 21 352 52 359 337 36 43 21 63 110 32 117 103 13 3 7 5 4 357 342 310 299 300 303 297 295 295 289 287 289 292 293 293 293 296 299 303
203 183 187 194 170 92 5 14 357 98 339 20 60 107 75 44 37 13 343 13 195 5 350 337 354 1 357 346 332 313 304 302 289 290 284 282 290 293 291 290 292 293 296
185 180 190 173 178 138 114 134 348 95 29 134 355 62 107 49 117 337 55 4 343 17 345 320 33 359 346 341 331 321 315 306 304 296 290 283 293 295 294 292 287 289 292
180 167 192 168 153 134 115 85 50 51 45 127 120 250 162 343 110 14 32 328 10 26 343 5 41 348 344 342 341 337 315 307 303 302 289 284 293 304 309 298 292 286 287
187 182 181 171 172 179 106 123 89 31 31 153 165 280 341 8 80 84 319 339 19 53 336 339 350 163 321 344 322 332 327 314 303 314 296 289 283 294 301 309 308 291 287
190 191 183 179 183 160 137 96 118 87 16 99 207 215 226 201 256 347 356 6 14 13 10 336 355 2 16 8 321 350 339 331 317 304 303 289 289 285 286 294 299 299 293
192 191 188 186 188 161 141 120 129 122 2 13 39 241 302 90 313 331 358 15 7 0 352 31 331 1 349 343 309 334 347 332 324 315 293 284 282 282 282 285 286 289 291
197 202 198 200 175 182 194 146 129 135 108 19 350 42 67 52 66 83 330 20 356 338 335 354 324 9 324 342 338 339 340 327 318 308 301 293 286 286 279 279 280 283 283
199 203 203 199 194 201 206 170 152 138 152 168 147 11 23 28 21 27 343 339 320 348 316 328 342 339 326 330 336 347 346 331 321 310 302 297 295 286 281 272 279 276 278
203 206 208 204 198 204 198 198 161 149 143 173 115 118 120 125 321 2 313 323 319 329 307 324 328 310 335 334 331 334 332 328 325 317 305 295 292 290 282 275 269 282 265
205 210 210 207 201 210 206 207 192 166 174 141 144 128 40 303 311 288 296 303 316 333 338 345 344 326 342 334 320 316 320 329 319 323 313 304 296 291 293 293 271 274 264
213 216 217 211 210 212 212 207 200 192 173 152 108 87 131 302 314 283 289 316 323 321 324 335 347 338 324 306 305 316 318 330 330 323 324 320 310 299 289 289 279 269 260
218 216 215 212 213 213 216 212 207 212 194 182 129 61 77 334 315 340 336 318 314 316 324 303 323 304 300 303 318 325 332 331 328 335 335 327 320 314 301 289 286 270 264
208 214 212 211 211 217 219 214 217 223 210 198 194 320 39 19 14 332 302 294 286 300 302 303 301 307 315 322 331 335 331 336 339 330 325 319 318 318 313 296 285 267 256
200 209 207 211 212 219 222 218 219 226 221 208 209 243 314 347 5 356 337 326 294 285 289 307 315 327 325 332 332 325 327 327 336 325 324 319 317 316 313 306 278 271 244
202 205 197 200 216 220 224 224 218 226 229 228 232 243 261 286 318 352 333 311 303 313 309 301 320 324 329 331 323 320 329 321 318 320 313 312 324 309 314 306 278 280 245
207 200 195 213 216 227 233 230 225 223 230 231 240 257 257 276 315 325 337 328 323 314 311 306 311 325 313 321 321 305 293 299 311 323 309 311 311 306 313 303 292 274 233
205 203 201 207 211 219 234 230 226 224 228 229 230 239 251 270 291 316 327 329 317 313 310 309 309 311 316 318 294 296 306 316 325 344 338 316 319 317 315 311 283 264 232
219 211 209 209 214 223 217 222 226 226 225 226 233 245 256 276 293 307 319 330 322 316 314 313 313 316 314 305 309 308 312 317 330 343 322 323 327 324 335 333 318 264 229
216 211 212 208 221 214 218 216 223 222 225 226 231 242 250 271 292 306 316 320 323 318 314 315 316 313 312 305 308 309 315 318 319 329 309 318 329 317 331 332 309 233 230
218 213 215 220 220 221 218 218 220 220 222 226 230 236 250 269 283 295 307 313 310 310 309 309 310 311 305 309 306 308 310 311 303 322 327 327 333 310 320 329 323 220 226
221 217 222 224 226 226 222 218 219 219 221 222 229 236 254 271 282 299 306 303 304 305 306 302 301 301 297 295 300 303 304 305 309 332 325 306 325 304 312 332 332 214 219
219 217 235 224 223 227 224 213 213 218 225 224 231 241 257 272 288 295 298 305 306 309 304 296 292 299 303 300 299 297 300 307 309 308 301 299 314 294 311 313 321 214 214
228 219 225 227 228 222 220 209 214 220 224 225 234 246 260 272 286 299 299 303 304 308 300 294 296 299 297 296 293 291 307 306 314 311 320 299 314 293 300 296 271 250 215